Weather Roundup
Issued by NWS Chicago, IL

Home | Current Version | Previous Version | Text Only | Print | Product List | Glossary Off
Versions: 1 2 3 4 5 6 7 8 9 10 11 12 13 14 15 16 17 18 19 20 21 22 23 24 25 26 27 28 29 30 31 32 33 34 35 36 37 38 39 40 41 42 43 44 45 46 47 48 49 50

000
NZUS59 KLOT 222003
HRRLOT

CHICAGO AREA WEATHER ROUNDUP
NATIONAL WEATHER SERVICE CHICAGO/ROMEOVILLE IL
200 PM CST THU FEB 22 2018

NOTE: "FAIR" INDICATES FEW OR NO CLOUDS BELOW 12,000 FEET WITH NO
SIGNIFICANT WEATHER AND/OR OBSTRUCTIONS TO VISIBILITY.

* THESE STATIONS ARE NOT UNDER NWS QUALITY CONTROL. THEY ALSO MAY NOT
  REPORT WEATHER SUCH AS PRECIPITATION OR FOG.

ILZ005-006-012>014-019>023-222100-
NORTHEAST ILLINOIS

CITY           SKY/WX    TMP DP  RH WIND       PRES   REMARKS
OHARE          CLOUDY    38  28  67 NE16      30.45F
MIDWAY         CLOUDY    39  30  70 E17       30.45F
AURORA         CLOUDY    42  32  67 NE17      30.41F
LANSING*       CLOUDY    40  34  79 NE10      30.44F
JOLIET*        CLOUDY    43  34  71 E14G20    30.42F
WAUKEGAN       CLOUDY    35  30  82 NE14      30.47F WCI  26
DUPAGE AIRPORT CLOUDY    40  31  70 NE16      30.42F
WHEELING       CLOUDY    38  29  70 E10       30.47F
KANKAKEE*      CLOUDY    44  37  78 E16G22    30.41F
MORRIS*        CLOUDY    42  35  76 E15       30.39F
LEWIS AIRPORT* CLOUDY    40  33  74 E14       30.42F
NORTHERLY ISL    N/A     36  30  79 NE12        N/A
$$

WIZ051-052-058>065-066-070>072-222100-
SOUTHEAST WISCONSIN

CITY           SKY/WX    TMP DP  RH WIND       PRES   REMARKS
MILWAUKEE      CLOUDY    34  29  82 NE13      30.51F WCI  25
KENOSHA*       CLOUDY    36  29  75 E15       30.49F
RACINE*        CLOUDY    36  29  75 NE13      30.52F
BURLINGTON     CLOUDY    34  28  79 NE10      30.49F WCI  26
WAUKESHA       PTSUNNY   32  25  74 E14       30.51F WCI  22
WEST BEND      CLOUDY    32  28  86 E9        30.51F WCI  24
$$

INZ001>003-010>013-019-020-222100-
NORTHWEST INDIANA

CITY           SKY/WX    TMP DP  RH WIND       PRES   REMARKS
GARY*          CLOUDY    39  32  75 MISG      30.45F
MICHIGAN CITY* NOT AVBL
RENSSELAER*    NOT AVBL
VALPARAISO     CLOUDY    44  35  70 E18       30.44F
$$

LMZ740>746-222100-
SOUTHERN LAKE MICHIGAN

STATION/POSITION TIME  SKY/WX   TEMP WIND        PRES    VSBY
                                AIR  DIR/SP/G
                 (UTC)          (F)  (DEG/KT/KT) (MB)    (MI)
HARRISON CRIB    1940            34   40/ 15/ 16   N/A
BURNHAM HARBOR   2000            36   30/  9/ 14   N/A
CALUMET HARBOR   1930            35   20/ 12/ 15 1031.0F
BURNS HARBOR     1940            36   40/ 12/ 13 1031.5F
MICHIGAN CITY    1940            41   60/ 15/ 17   N/A
$$

ABBREVIATIONS USED IN REMARKS
   TC - TEMPERATURE IN CELSIUS
  WCI - WIND CHILL INDEX
   HX - HEAT INDEX
  VSB - VISIBILITY
$$




USA.gov is the U.S. government's official web portal to all federal, state and local government web resources and services.